[Date Prev][Date Next][Thread Prev][Thread Next] - [Date Index][Thread Index][Author Index]
2 Line ISS Keps 12-7
- Subject: [sarex] 2 Line ISS Keps 12-7
- From: "Dave Larsen Ph.D." <doc@xxxxxxxxxxx>
- Date: Sat, 7 Dec 2002 03:32:00 -0800
ISS
1 25544U 98067A 02341.18978108 .00029709 00000-0 40869-3 0 4488
2 25544 51.6372 264.3972 0003467 238.1251 270.7015 15.57009640230959
----
Via the sarex mailing list at AMSAT.ORG courtesy of AMSAT-NA.
To unsubscribe, send "unsubscribe sarex" to Majordomo@amsat.org
AMSAT Home